[[{"header":{"parameterUnit":"m.s-1","parameterCategory":1,"la1":30.2991,"la2":30.254,"lo1":-89.0895,"lo2":-89.0444,"dy":0.0017,"dx":0.0017,"nx":28,"ny":28,"refTime":"2024-03-14T21:00:00:Z","depth":0,"parameterNumber":2,"parameterNumberName":"U-component_of_WINDS"},"data":[0,0,0,0,0,0,0,0,0,0,0,0,0,0,0,0,0,0,0,0,0,0,0,0,0,0,0,0,0,0,0,0,0,0,0,0,0,0,0,0,0,0,0,0,0,0,0,0,0,0,0,0,0,0,0,0,0,0,-0.8967,-0.8967,0,-0.8976,-0.8977,-0.8977,-0.8989,-0.8989,-0.8989,-0.8989,-0.8998,-0.8999,-0.8999,0,0,0,0,0,0,0,0,0,0,0,0,0,-0.8959,-0.8959,-0.8967,-0.8967,-0.8967,-0.8976,-0.8977,-0.8977,-0.8989,-0.8989,-0.8989,-0.899,-0.8998,-0.8999,-0.8999,0,0,0,0,0,0,0,0,0,0,0,0,0,-0.8965,-0.8959,-0.8967,-0.8974,-0.8975,-0.8976,-0.8977,-0.8977,-0.8989,-0.8989,-0.8989,-0.899,-0.8998,-0.8999,-0.8999,-0.8993,0,0,-0.8999,-0.8999,0,0,0,0,0,0,0,0,-0.8964,-0.8965,-0.8973,-0.8974,-0.8975,-0.8982,-0.8977,-0.8982,-0.8989,-0.8984,-0.8989,-0.899,-0.8993,-0.8993,-0.8994,-0.8994,-0.8994,-0.8999,-0.8999,-0.8999,-0.8999,0,0,0,0,0,0,0,-0.8964,-0.8965,-0.8971,-0.8973,-0.8974,-0.8977,-0.8978,-0.8978,-0.8986,-0.8984,-0.8985,-0.8986,-0.8993,-0.8994,-0.8995,-0.8994,-0.8999,-0.8999,-0.8999,-0.8999,-0.8989,-0.8988,0,0,0,0,0,0,-0.8963,-0.8964,-0.897,-0.8971,-0.897,-0.8977,-0.8978,-0.8979,-0.8986,-0.8988,-0.8986,-0.8986,-0.8994,-0.8995,-0.8995,-0.8988,-0.8999,-0.8999,-0.8999,-0.8989,-0.8988,-0.8988,0,0,0,0,0,0,-0.8962,-0.8963,-0.897,-0.8968,-0.8969,-0.8977,-0.8978,-0.8979,-0.898,-0.8988,-0.8989,-0.8985,-0.8994,-0.8995,-0.8993,-0.8989,-0.8999,-0.8999,-0.8989,-0.8989,-0.8988,-0.8975,0,0,0,0,0,0,-0.8962,-0.8963,-0.8961,-0.8968,-0.8969,-0.8968,-0.8978,-0.8979,-0.8981,-0.8982,-0.8988,-0.8989,-0.8994,-0.8993,-0.8993,-0.8989,-0.8999,-0.899,-0.8989,-0.8988,-0.8976,-0.8974,-0.8973,0,0,0,0,0,-0.8962,-0.8957,-0.8961,-0.8961,-0.8967,-0.8968,-0.8969,-0.8976,-0.898,-0.8978,-0.8983,-0.8989,-0.899,-0.8993,-0.8993,-0.8989,-0.899,-0.8989,-0.8988,-0.8977,-0.8975,-0.8973,0,0,0,0,0,0,-0.8949,-0.8958,-0.8962,-0.896,-0.8963,-0.897,-0.8968,-0.8973,-0.8975,-0.8976,-0.8984,-0.8986,-0.8983,-0.8986,-0.899,-0.8984,-0.8991,-0.899,-0.8982,-0.898,-0.8978,-0.8977,-0.8999,0,0,0,0,0,-0.8946,-0.8947,-0.8954,-0.8951,-0.8953,-0.896,-0.8961,-0.8966,-0.8969,-0.8971,-0.8975,-0.8979,-0.898,-0.898,-0.8981,-0.8977,-0.8978,-0.8974,-0.8973,-0.8971,-0.897,-0.8967,-0.8966,-0.8986,-0.8986,-0.8986,0,0,-0.894,-0.8945,-0.8944,-0.8949,-0.8952,-0.8952,-0.8961,-0.8961,-0.8961,-0.8971,-0.8969,-0.8973,-0.8977,-0.8974,-0.8973,-0.8976,-0.8965,-0.897,-0.8969,-0.8969,-0.8966,-0.8965,-0.8963,-0.8985,-0.8985,-0.8985,0,0,-0.8928,-0.8932,-0.893,-0.8933,-0.8937,-0.8942,-0.8942,-0.8948,-0.8951,-0.895,-0.8957,-0.8957,-0.8959,-0.8961,-0.8963,-0.8952,-0.8957,-0.8952,-0.8943,-0.894,-0.8939,-0.8937,-0.8932,-0.8931,-0.8951,-0.8951,-0.8951,0,-0.8919,-0.892,-0.8928,-0.8927,-0.8928,-0.8938,-0.8935,-0.8937,-0.8942,-0.8943,-0.8947,-0.8949,-0.8952,-0.895,-0.8947,-0.8948,-0.8947,-0.8951,-0.8938,-0.8937,-0.8936,-0.8931,-0.893,-0.895,-0.895,-0.8951,-0.8951,0,-0.8908,-0.8909,-0.8906,-0.891,-0.8912,-0.891,-0.8917,-0.8917,-0.8922,-0.8927,-0.8925,-0.893,-0.8932,-0.8932,-0.8937,-0.8929,-0.8931,-0.8937,-0.8944,-0.8933,-0.8929,-0.8927,-0.8949,-0.895,-0.895,-0.895,0,0,-0.8888,-0.8897,-0.8896,-0.8898,-0.8904,-0.8904,-0.8903,-0.8905,-0.8904,-0.8908,-0.8906,-0.8907,-0.8912,-0.8914,-0.8919,-0.8917,-0.8907,-0.8922,-0.8923,-0.8918,-0.8898,-0.8893,-0.8891,-0.8911,-0.891,-0.891,-0.8897,0,-0.8877,-0.8875,-0.8882,-0.8878,-0.8877,-0.8887,-0.8885,-0.8889,-0.8893,-0.8893,-0.8898,-0.8898,-0.8905,-0.8906,-0.8904,-0.8908,-0.8903,-0.891,-0.8909,-0.8908,-0.8906,-0.8889,-0.8884,-0.8872,-0.8896,-0.8896,-0.8896,0,-0.8863,-0.8865,-0.8861,-0.8867,-0.8867,-0.8866,-0.8868,-0.8869,-0.8872,-0.8875,-0.8877,-0.8883,-0.8882,-0.8889,-0.8887,-0.8891,-0.8892,-0.8894,-0.8893,-0.8893,-0.89,-0.8887,-0.8868,-0.8866,-0.8893,-0.8893,-0.8894,0,-0.8848,-0.885,-0.8847,-0.8849,-0.8856,-0.8854,-0.8857,-0.8862,-0.8862,-0.8864,-0.8865,-0.8867,-0.8868,-0.8869,-0.8875,-0.888,-0.8872,-0.888,-0.8873,-0.8873,-0.887,-0.887,-0.885,-0.8872,-0.8872,-0.8872,-0.8872,0,-0.8833,-0.883,-0.884,-0.8839,-0.8835,-0.8844,-0.884,-0.8844,-0.8847,-0.8846,-0.8855,-0.8854,-0.8862,-0.8862,-0.8867,-0.8864,-0.8865,-0.8867,-0.8868,-0.8865,-0.8865,-0.8864,-0.8865,-0.8872,-0.8872,-0.8872,-0.8872,0,-0.8815,-0.8822,-0.882,-0.8827,-0.8828,-0.8825,-0.8831,-0.8829,-0.8834,-0.8833,-0.8833,-0.884,-0.884,-0.8847,-0.8849,-0.8852,-0.8846,-0.885,-0.8845,-0.8845,-0.8838,-0.8838,-0.8816,-0.8813,-0.8839,-0.8838,-0.8838,0,-0.8805,-0.8803,-0.8809,-0.8809,-0.8812,-0.8812,-0.8812,-0.882,-0.8821,-0.8825,-0.8823,-0.8824,-0.8824,-0.8824,-0.8829,-0.883,-0.8833,-0.8825,-0.8833,-0.8831,-0.8832,-0.8831,-0.8831,-0.8823,-0.8823,-0.8823,-0.8823,0,-0.8786,-0.8789,-0.879,-0.8792,-0.8793,-0.8795,-0.8797,-0.8796,-0.8805,-0.8805,-0.8805,-0.8806,-0.8808,-0.8808,-0.881,-0.8813,-0.8819,-0.882,-0.8819,-0.8815,-0.8812,-0.8812,-0.8839,-0.882,-0.8821,-0.8821,-0.8821,-0.8821,-0.8771,-0.8769,-0.8773,-0.8773,-0.8776,-0.8778,-0.8777,-0.8781,-0.8782,-0.8783,-0.8788,-0.8788,-0.8791,-0.8795,-0.8797,-0.8796,-0.88,-0.8798,-0.8797,-0.8796,-0.8794,-0.8813,-0.8797,-0.8797,-0.8797,-0.8797,-0.8797,0,-0.8751,-0.8754,-0.8755,-0.8758,-0.8758,-0.8764,-0.8767,-0.8767,-0.8766,-0.8769,-0.877,-0.8769,-0.877,-0.8775,-0.8776,-0.8775,-0.8777,-0.8774,-0.8774,-0.8774,-0.8791,-0.8792,-0.8772,-0.8772,-0.8772,-0.8772,-0.8772,-0.8772,-0.8741,-0.8738,-0.8741,-0.874,-0.8743,-0.8742,-0.8743,-0.8745,-0.8747,-0.8746,-0.8747,-0.8751,-0.8754,-0.8756,-0.8756,-0.8758,-0.8757,-0.8753,-0.8755,-0.8771,-0.8773,-0.8775,-0.8776,-0.8753,-0.8753,-0.8738,-0.8738,-0.8738]},{"header":{"parameterUnit":"m.s-1","parameterCategory":1,"la1":30.2991,"la2":30.254,"lo1":-89.0895,"lo2":-89.0444,"dy":0.0017,"dx":0.0017,"nx":28,"ny":28,"refTime":"2024-03-14T21:00:00:Z","depth":0,"parameterNumber":3,"parameterNumberName":"V-component_of_WINDS"},"data":[0,0,0,0,0,0,0,0,0,0,0,0,0,0,0,0,0,0,0,0,0,0,0,0,0,0,0,0,0,0,0,0,0,0,0,0,0,0,0,0,0,0,0,0,0,0,0,0,0,0,0,0,0,0,0,0,0,0,4.0193,4.0194,0,4.0341,4.0343,4.0345,4.0349,4.0347,4.0345,4.0343,4.0494,4.05,4.0505,0,0,0,0,0,0,0,0,0,0,0,0,0,3.991,3.9915,4.0192,4.0194,4.0196,4.0341,4.0343,4.0345,4.0349,4.0347,4.0345,4.0343,4.0492,4.0499,4.0506,0,0,0,0,0,0,0,0,0,0,0,0,0,4.0043,3.9917,4.0192,4.0216,4.0219,4.0341,4.0343,4.0346,4.035,4.0347,4.0344,4.0341,4.049,4.0498,4.0507,4.0615,0,0,4.0533,4.0537,0,0,0,0,0,0,0,0,4.0036,4.0053,4.021,4.0214,4.0218,4.0324,4.0299,4.0436,4.035,4.03,4.0343,4.034,4.044,4.0452,4.0486,4.0622,4.0628,4.0534,4.0539,4.0543,4.0545,0,0,0,0,0,0,0,4.0026,4.0047,4.0251,4.0213,4.0218,4.0218,4.0234,4.0325,4.0383,4.0304,4.0305,4.0322,4.0441,4.0478,4.049,4.063,4.0534,4.0541,4.0547,4.055,4.0863,4.0866,0,0,0,0,0,0,4.0013,4.0039,4.0247,4.0256,4.0118,4.0226,4.0243,4.0293,4.0382,4.0393,4.0325,4.0322,4.0464,4.048,4.0495,4.0629,4.0543,4.0551,4.0556,4.086,4.0864,4.0867,0,0,0,0,0,0,4.0007,4.0031,4.0241,4.0148,4.0175,4.0233,4.0289,4.0297,4.0334,4.0398,4.0408,4.0351,4.0463,4.0483,4.0585,4.0634,4.0555,4.0562,4.0856,4.0861,4.0865,4.0896,0,0,0,0,0,0,3.9998,4.0029,4.0071,4.0149,4.018,4.0329,4.0292,4.0302,4.0349,4.0347,4.0426,4.0436,4.0462,4.0572,4.0594,4.0644,4.0569,4.0852,4.0858,4.0864,4.0891,4.0901,4.0909,0,0,0,0,0,3.9988,4.0073,4.0073,4.0098,4.0233,4.0332,4.035,4.0379,4.0352,4.0395,4.0436,4.0434,4.0624,4.0583,4.0607,4.0661,4.0849,4.0856,4.0863,4.0886,4.0899,4.0909,0,0,0,0,0,0,3.9999,4.0084,4.0085,4.0197,4.0257,4.0332,4.0387,4.039,4.0459,4.0454,4.0487,4.0504,4.0607,4.0643,4.0596,4.077,4.0734,4.0746,4.0743,4.0755,4.0764,4.0755,4.0576,0,0,0,0,0,4.0014,4.0088,4.0157,4.025,4.028,4.0328,4.0372,4.0389,4.0453,4.0478,4.0527,4.0588,4.0662,4.071,4.0781,4.0895,4.0913,4.0943,4.0953,4.096,4.0971,4.1035,4.105,4.089,4.089,4.089,0,0,4.0047,4.0102,4.0147,4.0253,4.0302,4.0377,4.035,4.043,4.0487,4.049,4.0591,4.0628,4.0699,4.0808,4.0858,4.0841,4.1019,4.0969,4.0975,4.0982,4.1044,4.1059,4.1073,4.0895,4.0894,4.0894,0,0,4.0146,4.0194,4.0277,4.0327,4.0401,4.0432,4.0452,4.0527,4.0553,4.0654,4.0658,4.0725,4.0851,4.0902,4.0944,4.1061,4.1061,4.1083,4.1133,4.1195,4.1208,4.1219,4.1263,4.1278,4.1093,4.1093,4.1093,0,4.0177,4.0291,4.0319,4.0401,4.0448,4.0455,4.0539,4.0585,4.0679,4.0711,4.0691,4.085,4.0898,4.1019,4.1048,4.1081,4.1105,4.1075,4.1204,4.1215,4.1226,4.1268,4.1284,4.1095,4.1095,4.1095,4.1094,0,4.0327,4.0406,4.0464,4.0555,4.0608,4.0691,4.0731,4.0781,4.0793,4.0827,4.093,4.0987,4.1071,4.11,4.1112,4.1223,4.1211,4.1197,4.1161,4.1244,4.1284,4.13,4.1098,4.1098,4.1097,4.1096,0,0,4.0439,4.0544,4.0565,4.0607,4.0689,4.075,4.0832,4.0915,4.0958,4.1021,4.1092,4.1198,4.1186,4.1234,4.1251,4.1305,4.1396,4.1285,4.1287,4.1305,4.1524,4.1537,4.1555,4.1396,4.1399,4.1401,4.1519,0,4.0548,4.0696,4.0724,4.0852,4.0926,4.0933,4.1005,4.1062,4.1095,4.1162,4.1198,4.1274,4.1251,4.128,4.1333,4.1374,4.1441,4.1365,4.1463,4.1466,4.1448,4.1575,4.1589,4.1697,4.1535,4.1537,4.1539,0,4.0697,4.0765,4.0901,4.0974,4.1006,4.107,4.1148,4.1212,4.1277,4.1297,4.135,4.1362,4.1447,4.1406,4.1524,4.1472,4.1513,4.1539,4.1544,4.1556,4.151,4.1593,4.1732,4.1749,4.1564,4.1562,4.156,0,4.0768,4.0893,4.0992,4.1027,4.1113,4.1158,4.1196,4.1259,4.1307,4.1374,4.1406,4.1481,4.1524,4.1582,4.1614,4.158,4.1731,4.1691,4.1751,4.175,4.1785,4.1783,4.1934,4.1806,4.1806,4.1806,4.1805,0,4.0889,4.0973,4.1025,4.1086,4.1179,4.1209,4.1301,4.1338,4.1394,4.1462,4.147,4.1534,4.157,4.1638,4.1663,4.1759,4.1777,4.1796,4.1802,4.1797,4.1795,4.1826,4.1821,4.181,4.1809,4.1808,4.1807,0,4.0985,4.1023,4.1132,4.1204,4.1224,4.1291,4.1353,4.1412,4.1443,4.1529,4.1551,4.1602,4.1683,4.1719,4.1818,4.1835,4.1945,4.1944,4.1923,4.1926,4.1984,4.198,4.2164,4.2191,4.2042,4.2044,4.2045,0,4.1062,4.1127,4.1206,4.1253,4.1292,4.1366,4.1416,4.1446,4.1497,4.1576,4.1626,4.1707,4.1775,4.1903,4.1949,4.2025,4.2028,4.2087,4.204,4.2033,4.2032,4.2029,4.2036,4.2097,4.2098,4.2099,4.21,0,4.1194,4.121,4.128,4.1358,4.1417,4.1479,4.154,4.1577,4.1617,4.1673,4.1757,4.1809,4.1911,4.1992,4.2071,4.211,4.2113,4.2114,4.2133,4.213,4.2117,4.2127,4.195,4.2111,4.211,4.2109,4.2109,4.2108,4.1285,4.1344,4.1409,4.1488,4.1536,4.1593,4.1653,4.1692,4.1762,4.1849,4.1862,4.1951,4.2014,4.2121,4.2162,4.2232,4.2218,4.2244,4.2251,4.2258,4.2262,4.2103,4.2246,4.2246,4.2246,4.2245,4.2245,0,4.142,4.1463,4.1534,4.162,4.1682,4.1678,4.1745,4.1797,4.1876,4.1934,4.2,4.2096,4.2175,4.2225,4.2305,4.2351,4.2354,4.2371,4.237,4.2379,4.2269,4.2247,4.2367,4.2367,4.2367,4.2367,4.2367,4.2367,4.1498,4.1598,4.1621,4.1744,4.1785,4.1873,4.1912,4.1965,4.2012,4.2119,4.2185,4.2217,4.2273,4.2356,4.2428,4.2441,4.247,4.2488,4.2501,4.2399,4.2386,4.2374,4.2353,4.2494,4.2494,4.2605,4.2606,4.2607]}]]